Terminal Aerodrome Forecast
Issued by NWS

Home | Current Version | Previous Version | Text Only | Print | Product List | Glossary On
Versions: 1 2 3 4 5 6 7 8 9 10 11 12 13 14 15 16 17 18 19
000
FTUS42 KJAX 020520
TAFCRG
TAF
KCRG 020520Z 0206/0306 00000KT P6SM SCT150 BKN250
     FM020900 00000KT 4SM BR SCT100 SCT250
      TEMPO 0209/0212 2SM BR
     FM021400 23006KT P6SM SCT030 SCT250
     FM021700 16008KT P6SM VCTS BKN035CB
      TEMPO 0220/0223 3SM TSRA OVC030CB
     FM030000 19005KT P6SM VCSH SCT040 BKN120=

USA.gov is the U.S. government's official web portal to all federal, state and local government web resources and services.